This demonstration page uses our WeatherBlox Daily Observations layout. Learn more.

Left ArrowRight Arrow

34.74481, -87.66753

Hourly Observations for August 21, 2015

Temp ( °F °C ) Dew Point ( °F °C ) Humidity (%) Winds ( mph kmh ) Pressure ( in mb ) Visibility ( mi km ) Precip ( " mm )
12:53 am 00:53 Mostly Cloudy 72 22.2 69 20.6 91 91 Calm 30.04 1017 10 16 0.00 0.00
1:53 am 01:53 Mostly Cloudy 72 22.2 68 20 87 87 Calm 30.03 1017 10 16 0.00 0.00
2:53 am 02:53 Cloudy 72 22.2 68 20 87 87 NE 3 6 30.02 1017 10 16 0.00 0.00
3:53 am 03:53 Cloudy 73 22.8 68 20 84 84 ENE 3 6 30.03 1017 10 16 0.00 0.00
4:53 am 04:53 Cloudy 72 22.2 68 20 87 87 ENE 3 6 30.04 1017 10 16 0.00 0.00
5:53 am 05:53 Cloudy 72 22.2 68 20 87 87 NE 3 6 30.06 1018 10 16 0.00 0.00
6:53 am 06:53 Cloudy 72 22.2 67 19.4 84 84 Calm 30.07 1018 10 16 0.00 0.00
7:53 am 07:53 Cloudy 72 22.2 67 19.4 84 84 Calm 30.08 1019 10 16 0.00 0.00
8:53 am 08:53 Cloudy 73 22.8 66 18.9 79 79 ENE 5 7 30.09 1019 10 16 0.00 0.00
9:53 am 09:53 Cloudy 75 23.9 67 19.4 76 76 ENE 7 11 30.10 1019 10 16 0.00 0.00
10:53 am 10:53 Mostly Sunny 77 25 65 18.3 66 66 VRB 6 9 30.11 1020 10 16 0.00 0.00
11:53 am 11:53 Cloudy 78 25.6 65 18.3 64 64 E 6 9 30.10 1019 10 16 0.00 0.00
12:53 pm 12:53 Cloudy 79 26.1 66 18.9 65 65 ENE 5 7 30.09 1019 10 16 0.00 0.00
1:53 pm 13:53 Mostly Cloudy 79 26.1 66 18.9 65 65 ENE 5 7 30.08 1019 10 16 0.00 0.00
2:53 pm 14:53 Sunny 80 26.7 66 18.9 62 62 E 6 9 30.06 1018 10 16 0.00 0.00
3:53 pm 15:53 Mostly Sunny 81 27.2 68 20 65 65 ENE 3 6 30.06 1018 10 16 0.00 0.00
4:53 pm 16:53 Sunny 80 26.7 68 20 67 67 ENE 5 7 30.05 1018 10 16 0.00 0.00
5:53 pm 17:53 Mostly Sunny 80 26.7 69 20.6 69 69 Calm 30.05 1018 10 16 0.00 0.00
6:53 pm 18:53 Cloudy 79 26.1 69 20.6 72 72 Calm 30.05 1018 10 16 0.00 0.00
7:53 pm 19:53 Clear 75 23.9 69 20.6 82 82 NNE 3 6 30.05 1018 10 16 0.00 0.00
8:53 pm 20:53 Clear 74 23.3 70 21.1 88 88 E 3 6 30.06 1018 10 16 0.00 0.00
9:53 pm 21:53 Clear 73 22.8 69 20.6 87 87 SE 5 7 30.07 1018 10 16 0.00 0.00
10:53 pm 22:53 Clear 72 22.2 68 20 87 87 ENE 3 6 30.05 1018 10 16 0.00 0.00
11:53 pm 23:53 Clear 72 22.2 67 19.4 84 84 Calm 30.04 1017 10 16 0.00 0.00

Powered by AerisWeather